Flag for U.S.A. Weather past 2 weeks in Honolulu, Hawaii, U.S.A.

Now
85 °F

Scattered clouds.


Feels Like: 94 °F
Forecast: 75 / 86 °F
Wind: 12 mph from Southwest

Location: Honolulu International Airport

Current Time: Sep 1, 2015 at 2:37:10 PM

Latest Report: Sep 1, 2015 at 1:53 PM


Visibility: 10 mi

Pressure: 29.78 "Hg

Humidity: 75%

Dew point: 76 °F

Location of HonoluluLocation

Historic Weather in Honolulu — Graph

°F

Honolulu temperature yesterday

Maximum temperature yesterday: 90 °F (at 11:53 AM)
Minimum temperature yesterday: 78 °F (at 5:53 AM)
Average temperature yesterday: 84 °F

Past Weeks' High & Low Weather Summary

 TemperatureHumidityPressure
High91 °F (Aug 21, 1:53 PM)100% (Aug 23, 7:31 PM)29.95 "Hg (Aug 23, 7:31 PM)
Low73 °F (Aug 24, 3:40 AM)49% (Aug 21, 1:53 PM)29.77 "Hg (Aug 18, 4:53 PM)
Average82 °F78%29.87 "Hg
* Reported Aug 17 12:53 PM — Sep 1 12:53 PM, Honolulu, Weather by CustomWeather, © 2015

Note: Actual official high and low records may vary slightly from our data, if they occured in-between our weather recording intervals... More about our weather records

Advertising

Honolulu weather history for previous 24 hours

 ConditionsComfort  
Time TempWeatherWind HumidityBarometerVisibility
12:53 PM
Tue, Sep 1
86 °FScattered clouds.13 mph70%29.80 "Hg10 mi
11:53 AM83 °FLight rain. Mostly cloudy.8 mph79%29.83 "Hg8 mi
10:53 AM88 °FScattered clouds.5 mph57%29.84 "Hg10 mi
9:53 AM86 °FScattered clouds.12 mph63%29.86 "Hg10 mi
8:53 AM84 °FScattered clouds.6 mph72%29.86 "Hg10 mi
7:53 AM80 °FScattered clouds.7 mph81%29.85 "Hg10 mi
6:53 AM79 °FScattered clouds.7 mph88%29.84 "Hg10 mi
5:53 AM78 °FPassing clouds.3 mph90%29.83 "Hg10 mi
4:53 AM80 °FPassing clouds.8 mph81%29.82 "Hg10 mi
3:53 AM80 °FPassing clouds.6 mph81%29.82 "Hg10 mi
2:53 AM81 °FPassing clouds.6 mph79%29.83 "Hg10 mi
1:53 AM81 °FPassing clouds.7 mph79%29.85 "Hg10 mi
12:53 AM82 °FPassing clouds.3 mph77%29.86 "Hg10 mi
11:53 PM
Mon, Aug 31
82 °FPassing clouds.6 mph77%29.87 "Hg10 mi
10:53 PM83 °FPassing clouds.6 mph74%29.89 "Hg10 mi
9:53 PM83 °FPassing clouds.6 mph74%29.89 "Hg10 mi
8:53 PM83 °FPassing clouds.3 mph72%29.88 "Hg10 mi
7:53 PM83 °FPartly cloudy.6 mph74%29.87 "Hg10 mi
6:53 PM84 °FPassing clouds.12 mph70%29.85 "Hg10 mi
4:53 PM87 °FPartly sunny.7 mph67%29.83 "Hg10 mi
3:53 PM89 °FBroken clouds.16 mph63%29.83 "Hg10 mi
2:53 PM87 °FBroken clouds.9 mph65%29.84 "Hg10 mi
Weather by CustomWeather, © 2015

See weather overviewHow to use our weather pages